This is the latest recevied weather packets stored in our database for station/object IW0REF-9. If no packets are shown the sender has not sent any weather packets the latest 10 day(s).
| Time | Temp. | Humidity | Pressure | Rain* | Wind** | Luminosity | Snow |
|---|---|---|---|---|---|---|---|
| 1777849422 | 16.67° C | 34% | 1002.8 hPa | - | - | - | - |
| 1777848522 | 16.67° C | 34% | 1002.9 hPa | - | - | - | - |
| 1777847622 | 16.67° C | 33% | 1002.9 hPa | - | - | - | - |
| 1777846721 | 16.11° C | 33% | 1003 hPa | - | - | - | - |
| 1777845821 | 16.11° C | 32% | 1003 hPa | - | - | - | - |
| 1777844920 | 16.11° C | 31% | 1002.9 hPa | - | - | - | - |
| 1777844019 | 16.67° C | 31% | 1002.9 hPa | - | - | - | - |
| 1777843118 | 16.67° C | 30% | 1002.9 hPa | - | - | - | - |
| 1777842218 | 17.22° C | 30% | 1002.8 hPa | - | - | - | - |
| 1777841317 | 17.78° C | 29% | 1002.6 hPa | - | - | - | - |
| 1777840416 | 18.33° C | 28% | 1002.7 hPa | - | - | - | - |
| 1777839516 | 18.89° C | 28% | 1002.6 hPa | - | - | - | - |
| 1777838614 | 18.89° C | 28% | 1002.5 hPa | - | - | - | - |
| 1777837713 | 18.89° C | 27% | 1002.3 hPa | - | - | - | - |
| 1777836813 | 18.89° C | 27% | 1002.3 hPa | - | - | - | - |
| 1777835912 | 18.89° C | 26% | 1002 hPa | - | - | - | - |
| 1777835012 | 18.89° C | 26% | 1001.9 hPa | - | - | - | - |
| 1777834110 | 19.44° C | 25% | 1001.8 hPa | - | - | - | - |
| 1777833210 | 20° C | 24% | 1001.6 hPa | - | - | - | - |
| 1777832309 | 21.11° C | 23% | 1001.4 hPa | - | - | - | - |
| 1777831408 | 22.22° C | 23% | 1001.4 hPa | - | - | - | - |
| 1777830508 | 22.22° C | 22% | 1001.3 hPa | - | - | - | - |
| 1777829606 | 24.44° C | 20% | 1001.3 hPa | - | - | - | - |
| 1777828705 | 27.22° C | 18% | 1001.2 hPa | - | - | - | - |
| 1777827805 | 30° C | 17% | 1001 hPa | - | - | - | - |
* Rain since midnight (hover to see other rain measurements)
** Current wind speed in m/s (hover to see current wind gust speed)